Home   Weather   Fort Drum   Past weeks
Flag for USA

Past Weather in Fort Drum, New York, USA — Yesterday and Last 2 Weeks

Now
51 °F

More clouds than sun.


Feels Like: 46 °F
Forecast: 62 / 44 °F
Wind: 13 mph from Southeast

Location: Fort Drum / Wheeler-Sack U. S. Army Airfield

Current Time: Oct 16, 2019 at 8:49:38 am

Latest Report: Oct 16, 2019 at 7:56 am


Visibility: 10 mi

Pressure: 29.74 "Hg

Humidity: 68%

Dew Point: 40 °F

Location of Fort DrumLocation

Past Weather in Fort Drum — Graph

°F

Fort Drum Temperature Yesterday

Maximum temperature yesterday: 56 °F (at 2:56 pm)
Minimum temperature yesterday: 36 °F (at 4:56 am)
Average temperature yesterday: 46 °F

High & Low Weather Summary for the Past Weeks

 TemperatureHumidityPressure
High83 °F (Oct 1, 2:56 pm)100% (Oct 1, 7:14 am)30.49 "Hg (Oct 1, 7:14 am)
Low30 °F (Oct 5, 5:06 am)34% (Oct 13, 3:56 pm)29.77 "Hg (Oct 16, 6:56 am)
Average52 °F77%30.09 "Hg
* Reported Oct 1 6:16 am — Oct 16 6:56 am, Fort Drum. Weather by CustomWeather, © 2019

Note: Actual official high and low records may vary slightly from our data, if they occured in-between our weather recording intervals... More about our weather records

Advertising

Fort Drum Weather History for the Previous 24 Hours

Scroll right to see more
 ConditionsComfort  
Time TempWeatherWind HumidityBarometerVisibility
6:56 am
Wed, Oct 16
50 °FOvercast.17 mph65%29.77 "Hg10 mi
5:56 am49 °FPartly cloudy.15 mph64%29.79 "Hg10 mi
4:56 am48 °FPassing clouds.16 mph66%29.82 "Hg10 mi
3:56 am47 °FPassing clouds.15 mph65%29.85 "Hg10 mi
2:56 am47 °FPassing clouds.14 mph67%29.88 "Hg10 mi
1:56 am47 °FPassing clouds.14 mph67%29.91 "Hg10 mi
12:56 am47 °FOvercast.14 mph67%29.93 "Hg10 mi
11:56 pm
Tue, Oct 15
45 °FPassing clouds.14 mph71%29.94 "Hg10 mi
10:56 pm44 °FPassing clouds.10 mph74%29.98 "Hg10 mi
9:56 pm44 °FPassing clouds.8 mph81%30.01 "Hg10 mi
8:56 pm43 °FClear.5 mph83%30.03 "Hg10 mi
7:56 pm43 °FClear.No wind81%30.04 "Hg10 mi
6:56 pm47 °FClear.No wind72%30.03 "Hg10 mi
5:56 pm52 °FSunny.No wind60%30.03 "Hg9 mi
4:56 pm56 °FSunny.No wind50%30.04 "Hg8 mi
3:56 pm55 °FSunny.3 mph48%30.06 "Hg10 mi
2:56 pm56 °FScattered clouds.10 mph48%30.07 "Hg10 mi
1:56 pm54 °FOvercast.14 mph54%30.10 "Hg10 mi
12:56 pm53 °FMostly cloudy.6 mph56%30.11 "Hg10 mi
11:56 am52 °FMore clouds than sun.6 mph47%30.13 "Hg10 mi
10:56 am51 °FPartly sunny.3 mph55%30.13 "Hg10 mi
10:30 am50 °FScattered clouds.3 mph58%30.14 "Hg10 mi
9:56 am50 °FSunny.6 mph60%30.14 "Hg10 mi
8:56 am42 °FSunny.5 mph80%30.15 "Hg10 mi
Weather by CustomWeather, © 2019

See weather overview